Volver al catálogo

STARLINK-30198

ActivoComunicacionesVLEO
NORAD 57290·PAYLOAD·🇺🇸 United States

Lanzado Jul 10, 2023 desde Cape Canaveral Space Force Station

Loading…

Próximos Pases (próximas 24 horas)

TLE

ActualizadoSource: CelesTrak SupGP

Época: Sep 14, 2026, 21:56 UTC

1 57290C 23096A   26257.91437500  .00057511  00000+0  18178-2 0  2576
2 57290  42.9821 237.7562 0012603 114.1360 356.4495 15.31872974    15

Sigue STARLINK-30198 en tiempo real con AllMySat

Download on the App Store